Theta_e
306 305 307 305 304 293 296 299 295 297 299 299 295 298 300 299 296 290 295 300 298 303 306 311 314 315 317 318 319 321 322 323 324 325 326 327 329 330 331 331 332 332 334 336 337 337 338 340 340 341 343 344 346 348 350 349 350 351 353 354 352 352 352
307 309 307 307 307 301 296 296 295 301 303 300 296 287 292 291 287 290 296 294 294 299 294 307 308 311 314 315 316 319 321 323 322 325 326 327 327 330 332 332 333 334 334 336 337 338 339 340 341 341 343 345 347 349 350 350 350 350 352 353 354 353 352
306 309 307 304 307 307 301 296 301 298 291 291 293 291 288 286 287 287 292 295 295 297 297 303 304 306 310 314 316 317 319 321 322 324 325 327 328 329 330 331 333 334 334 335 337 338 339 341 342 342 344 345 347 349 351 352 351 352 352 354 354 355 354
305 306 304 297 300 305 306 303 299 300 295 295 291 292 290 291 286 289 288 293 291 300 299 303 306 307 309 313 315 316 318 320 322 323 325 326 326 327 329 331 333 334 335 336 337 338 338 340 341 343 344 345 347 349 351 352 353 353 353 353 355 354 354
303 298 300 300 301 299 300 300 298 299 299 298 298 296 294 290 287 284 286 289 292 298 304 307 306 307 309 313 314 317 318 320 323 324 325 325 326 327 329 331 332 334 335 336 338 339 340 341 343 344 344 345 346 349 351 353 352 353 353 354 354 354 355
295 298 303 304 304 304 302 301 299 299 294 293 289 287 296 294 291 285 287 288 290 301 309 310 309 310 310 314 316 317 318 320 322 324 325 326 326 327 329 331 332 333 335 337 339 340 341 341 342 343 344 345 346 348 350 353 354 354 354 354 355 355 355
297 300 303 307 307 307 305 303 301 300 295 294 290 286 287 295 293 297 292 288 293 302 307 309 311 310 310 314 316 317 319 320 322 324 326 327 328 328 329 330 332 334 335 337 339 339 340 341 342 343 344 345 346 347 350 352 353 354 355 355 356 356 355
301 303 304 304 306 307 304 304 304 301 297 296 294 290 290 291 292 291 291 291 290 300 308 309 309 310 310 312 315 316 318 320 322 324 325 326 327 329 330 331 332 333 335 337 338 339 340 340 341 343 344 345 346 347 349 352 353 354 355 356 357 356 356
292 298 299 299 303 304 302 301 302 303 303 300 296 297 297 294 291 292 289 288 290 300 308 309 309 311 309 312 313 316 317 318 321 324 326 327 328 329 329 330 330 331 333 335 337 338 339 341 342 343 344 344 345 346 348 350 352 355 356 357 357 356 356
286 287 288 291 294 298 301 302 302 303 302 299 296 294 293 287 292 294 289 290 291 300 306 307 308 308 306 307 312 316 317 320 321 322 325 327 328 328 329 329 329 329 332 335 337 338 339 341 342 343 344 344 345 346 347 350 352 354 355 357 357 356 356
292 294 294 298 301 299 298 299 300 301 303 302 300 296 291 291 289 294 291 296 296 300 303 303 305 306 305 307 306 313 314 316 319 320 324 326 327 328 328 329 329 329 332 334 336 338 339 341 342 343 344 344 345 346 347 349 351 354 355 356 357 356 356
299 300 299 302 303 299 300 299 299 301 301 301 299 295 294 294 292 291 293 297 298 299 302 304 304 306 306 307 308 310 313 315 317 319 322 332 326 327 328 328 328 329 331 334 336 338 339 341 343 344 344 345 345 345 346 348 350 353 355 356 356 356 356
301 301 301 302 303 301 301 301 300 299 301 301 298 298 296 297 294 293 294 298 299 300 304 305 305 306 307 308 311 313 316 318 318 320 322 324 325 326 326 327 328 330 331 333 335 337 339 341 341 343 344 345 345 346 347 348 349 351 354 355 356 356 356
300 301 301 303 301 302 301 301 301 301 301 300 301 300 299 298 297 297 297 298 300 301 302 303 305 307 311 314 317 318 319 324 322 320 320 324 325 326 327 328 328 330 332 334 335 337 339 341 341 343 344 345 345 345 346 347 348 351 353 354 355 355 355
298 301 302 302 302 301 301 300 301 302 301 301 301 301 300 301 299 299 297 297 298 301 302 304 305 306 313 310 311 315 317 321 325 322 323 324 325 326 327 328 329 330 332 334 335 336 338 341 342 343 345 345 346 346 346 347 348 350 352 353 354 354 355
295 300 301 301 302 301 299 298 299 299 300 299 300 299 300 299 298 299 298 296 297 300 304 307 307 304 307 308 311 315 318 320 326 324 323 324 325 326 327 328 329 330 332 333 335 337 339 342 343 344 345 346 346 346 347 347 348 349 350 352 352 354 355
293 299 300 300 300 299 296 297 299 300 300 300 302 303 305 304 303 299 296 297 300 303 306 306 306 305 305 306 309 313 320 324 326 326 326 326 326 327 327 328 330 331 333 335 336 338 339 342 344 346 347 347 346 347 347 347 348 348 349 350 352 353 354
293 298 299 300 295 290 293 302 303 303 301 301 301 300 301 302 304 300 303 304 302 302 304 305 305 305 304 306 309 311 319 320 324 326 328 329 329 329 329 330 331 333 335 336 338 339 340 342 345 347 349 348 349 349 349 348 347 348 348 350 351 352 354
292 296 300 296 290 291 301 304 305 305 305 304 303 303 304 304 305 306 307 307 304 306 305 305 305 306 310 314 313 314 317 314 317 327 329 329 330 331 332 331 332 334 335 336 338 339 340 342 344 346 348 350 350 350 349 348 348 347 348 349 350 352 353
294 294 294 290 291 300 307 304 306 307 305 304 304 307 313 315 307 305 309 311 311 311 313 313 312 313 316 320 322 322 323 320 319 317 317 327 329 329 331 333 333 333 334 336 337 339 342 343 344 345 347 350 350 350 350 349 348 348 348 348 350 351 352
290 292 293 294 301 303 305 305 307 304 301 302 302 304 308 316 318 313 313 314 316 316 317 316 315 316 313 314 318 325 325 324 323 316 319 318 322 325 329 336 338 338 336 337 339 341 342 344 345 346 347 349 350 350 350 349 348 348 348 348 348 350 351
295 291 290 293 293 291 295 302 309 313 311 310 314 312 308 317 320 319 318 317 319 319 318 318 318 314 310 313 317 323 332 333 331 327 327 323 318 314 320 329 337 341 341 341 343 345 344 344 346 348 348 348 349 349 350 350 349 348 347 347 349 350 351
297 293 288 289 290 292 298 306 309 312 313 318 314 311 304 314 319 320 322 321 321 320 318 318 315 311 308 312 316 326 335 337 338 336 337 336 333 327 317 324 332 337 341 342 343 346 347 348 349 349 349 349 350 349 349 350 349 348 347 348 349 349 351
298 292 290 288 294 295 301 308 312 311 311 311 306 296 300 312 320 323 323 321 321 321 321 322 320 315 311 314 319 331 335 337 336 335 334 334 336 340 346 342 329 333 339 341 341 342 345 349 352 352 350 350 350 350 350 350 349 348 348 349 350 351 352
297 298 291 293 297 306 312 312 314 313 313 307 297 289 303 316 320 324 324 324 324 324 324 323 321 321 323 327 331 334 335 334 334 335 335 334 335 338 340 340 344 328 332 341 342 342 344 348 351 352 352 351 350 350 350 350 349 350 351 351 350 351 351
295 295 293 291 296 307 313 314 317 317 310 298 291 304 317 322 326 329 330 328 329 329 328 327 327 328 331 333 332 331 331 331 332 333 333 333 334 337 340 341 340 343 343 336 334 341 343 345 348 350 352 351 349 350 350 350 351 353 353 351 351 351 351
300 298 293 290 288 301 314 314 313 316 304 302 312 321 324 329 328 328 328 329 329 329 326 328 327 328 329 329 329 329 329 329 330 331 331 331 331 332 335 337 339 339 337 338 340 342 346 347 350 351 350 349 349 349 349 350 353 354 354 352 352 352 351
294 295 294 293 303 309 315 314 304 311 314 319 321 324 323 327 328 327 326 326 327 328 327 326 326 327 327 327 328 327 327 328 329 329 330 331 332 332 333 335 336 340 336 336 340 343 345 345 347 352 352 350 349 347 349 353 354 354 354 354 354 353 352
302 299 303 309 310 314 317 316 315 321 326 326 328 327 326 324 324 327 325 325 326 326 325 324 325 325 326 326 327 326 326 328 328 327 328 330 331 331 331 332 334 336 339 336 337 338 340 342 343 343 350 352 350 350 351 353 353 354 355 355 355 355 355
313 312 311 314 315 315 316 318 318 319 323 325 325 324 322 323 325 325 323 322 322 322 323 322 322 323 325 324 325 326 327 327 328 329 329 331 332 332 332 332 333 335 337 338 337 336 336 338 341 342 344 346 350 351 355 356 356 357 357 356 355 356 357
301 294 310 312 314 316 316 316 318 320 321 321 322 321 322 322 322 321 321 320 319 319 319 318 317 317 319 319 321 324 326 327 327 327 327 328 329 330 330 331 332 331 332 333 334 333 333 336 339 341 343 342 341 343 344 349 353 353 352 355 354 356 357
304 303 309 312 316 317 317 316 314 314 316 318 317 317 317 317 317 318 318 319 318 318 316 316 316 315 317 317 319 323 326 328 328 325 326 326 327 328 329 331 332 331 332 333 334 335 335 338 340 340 339 339 340 341 343 344 344 344 343 344 349 353 355
308 311 313 313 315 315 314 315 315 315 315 314 315 316 315 315 315 314 315 316 315 315 314 315 315 314 315 316 317 318 321 324 327 328 328 327 327 328 328 329 331 332 333 333 334 333 334 338 339 338 337 338 339 339 340 341 341 338 336 335 338 345 350
301 301 306 312 306 305 311 313 314 315 315 315 316 314 314 313 313 313 312 312 314 314 313 313 314 313 314 316 316 316 317 318 321 324 326 328 330 330 331 330 330 333 334 333 332 331 332 336 338 337 338 339 340 342 340 339 339 337 335 335 336 337 338
300 310 314 315 314 312 313 314 316 316 316 315 313 313 312 312 312 312 311 311 311 312 313 313 313 313 314 315 317 317 317 318 320 323 325 326 328 330 332 332 331 330 331 333 332 331 330 333 336 337 338 339 339 340 339 339 339 337 337 336 335 336 336
312 315 316 317 312 310 312 315 316 317 318 315 313 313 312 312 311 311 310 311 310 311 312 313 314 313 315 316 317 316 317 318 319 320 323 325 326 328 331 333 333 331 330 331 331 331 330 331 334 335 336 337 338 339 339 338 338 337 336 335 333 333 333
310 318 319 317 315 314 316 316 317 317 318 316 316 314 313 312 312 313 312 311 312 312 311 312 313 315 316 317 317 316 316 317 319 319 321 323 324 324 326 327 330 333 333 334 333 333 333 335 336 336 335 335 338 338 337 337 336 334 334 333 332 333 333
Wind_Speed
14 9 7 7 10 8 6 7 15 9 8 7 2 3 1 0 0 9 3 3 4 6 3 5 10 15 19 19 18 17 16 17 15 15 17 18 19 19 19 19 18 20 19 20 20 20 18 18 18 20 21 21 22 19 18 20 19 18 19 19 18 17 16
12 16 9 8 11 7 5 12 6 3 4 6 6 7 1 7 7 5 3 9 3 2 8 3 5 9 12 10 10 15 17 17 17 16 17 18 18 19 20 20 20 21 21 22 20 19 20 21 22 22 22 20 19 19 20 20 19 20 18 18 18 16 17
11 9 12 10 10 12 11 9 6 8 4 9 3 3 9 7 9 3 3 4 5 8 7 2 7 9 13 14 13 12 14 16 17 18 21 20 19 17 17 18 18 19 18 19 19 20 21 22 22 22 21 19 17 17 18 20 22 21 21 18 17 15 16
11 8 8 14 10 8 10 6 5 6 6 9 5 7 3 5 3 4 6 4 7 6 6 8 12 14 13 15 16 15 17 20 21 21 20 18 17 16 17 18 18 19 20 21 21 20 20 20 19 18 19 18 20 19 19 19 18 18 18 18 17 17 16
6 11 7 13 13 12 9 10 9 3 4 2 6 3 8 6 4 4 3 6 6 6 7 8 9 10 11 14 16 16 19 21 22 21 19 18 18 16 17 18 18 19 19 19 19 19 20 19 18 17 17 20 20 18 18 19 20 19 19 19 18 16 15
8 7 5 9 14 14 12 12 12 10 7 4 8 9 2 3 4 4 4 11 5 9 5 8 11 14 7 12 17 19 20 21 20 19 21 20 18 19 19 19 19 19 17 18 18 17 15 15 15 18 18 17 17 19 19 19 18 19 20 19 18 17 15
11 8 8 10 17 15 15 12 11 10 4 5 3 7 4 1 5 3 5 3 9 8 4 7 9 8 6 10 14 16 17 19 20 21 21 20 20 19 19 20 19 18 18 18 18 19 18 19 19 19 18 18 19 20 19 18 20 21 20 20 17 16 16
12 9 6 5 10 17 15 14 12 11 10 8 8 7 5 5 2 5 2 7 9 6 6 10 7 6 8 9 12 15 14 15 16 17 17 18 17 19 20 20 19 18 17 16 15 16 16 15 15 17 18 18 18 17 18 18 21 21 19 18 17 17 17
7 13 8 6 3 7 10 11 13 15 13 11 4 4 2 5 6 6 7 14 5 4 3 8 9 5 5 4 6 7 8 5 12 17 18 18 19 19 19 19 19 15 10 11 13 16 17 16 16 17 18 18 17 18 17 19 19 19 18 17 17 17 17
13 13 15 13 12 14 9 6 15 15 19 15 7 10 3 7 5 6 5 5 6 8 3 11 18 17 13 5 4 7 11 15 16 15 16 17 17 19 20 18 14 13 14 15 14 15 15 16 17 17 17 18 18 18 19 18 15 15 17 16 17 17 17
15 12 2 3 7 4 11 8 12 16 17 17 14 5 6 14 3 6 8 3 1 5 5 7 11 15 14 8 6 5 8 8 8 10 16 17 18 18 17 15 13 11 11 16 17 17 17 17 17 17 18 18 18 17 18 17 16 16 16 16 16 17 17
17 16 15 8 8 10 13 11 12 15 18 17 16 12 13 6 6 14 4 5 5 7 6 7 10 13 12 3 5 4 5 7 13 11 6 9 12 12 12 12 12 14 14 15 16 17 17 17 17 16 16 17 17 17 18 17 16 16 14 16 17 17 17
19 16 19 17 7 8 10 15 12 16 18 19 19 16 7 11 9 13 5 8 8 7 7 7 9 11 5 6 8 8 9 11 13 14 17 17 15 12 12 13 14 14 15 15 17 17 17 17 16 16 15 14 14 15 15 16 16 18 17 16 17 17 17
19 18 18 19 18 8 6 11 13 14 18 20 21 17 11 13 8 8 9 9 11 8 7 7 8 8 5 2 3 3 4 1 5 11 15 19 17 17 18 18 18 17 18 17 16 15 14 14 15 15 15 16 17 17 17 18 18 18 16 17 18 18 19
17 21 17 18 19 13 12 9 11 15 15 17 19 16 14 13 9 4 7 9 11 8 6 8 8 8 5 2 3 4 5 5 5 9 10 8 9 11 13 15 17 16 16 15 14 14 15 15 17 16 15 15 15 16 16 17 18 17 17 18 18 19 20
11 16 22 20 18 15 10 8 9 9 14 16 14 14 8 7 6 6 6 6 8 7 8 8 9 5 7 7 5 3 6 6 9 6 8 11 15 16 17 15 12 11 12 12 13 15 15 16 16 15 15 14 15 16 17 18 18 17 17 18 19 19 18
6 12 16 21 17 13 12 17 16 9 6 6 6 10 14 15 13 11 9 9 8 12 10 9 10 7 6 5 5 4 3 5 10 11 10 10 8 6 6 6 7 10 13 13 14 14 14 15 16 17 18 16 17 18 18 19 16 16 18 19 19 19 18
7 11 17 11 10 14 16 3 9 11 11 9 6 4 6 8 8 6 11 13 8 6 5 9 9 8 4 5 6 1 3 8 6 6 10 12 12 11 10 9 10 10 10 11 14 17 17 18 20 20 18 19 19 20 20 17 16 17 18 18 18 18 17
6 10 7 13 18 15 4 4 7 13 12 11 10 3 1 2 3 3 2 2 1 6 7 11 7 4 3 2 4 6 8 6 4 9 13 11 11 12 13 15 15 15 15 15 16 17 17 18 16 13 14 17 17 16 15 16 18 19 19 19 18 17 17
3 3 4 10 10 3 1 4 6 4 9 9 10 5 3 2 4 5 3 4 4 5 0 1 4 12 12 13 10 10 8 5 4 4 5 6 9 12 12 17 18 17 16 15 17 17 15 13 13 14 16 17 16 16 15 17 18 18 19 19 18 17 17
5 4 6 5 0 1 1 1 2 3 5 7 10 6 1 4 4 2 10 6 8 4 1 3 1 1 8 12 9 10 10 10 9 4 0 3 4 4 6 7 7 8 11 15 17 16 14 15 15 16 17 16 16 15 15 16 17 18 18 18 18 18 19
3 5 4 2 5 7 5 4 4 2 4 9 14 11 0 5 6 2 3 6 1 2 3 2 1 1 10 8 5 6 8 9 9 10 12 7 4 3 6 6 7 12 12 9 7 6 8 11 14 15 16 15 14 14 16 16 16 16 17 19 19 19 19
5 4 5 4 6 5 6 1 2 5 9 14 7 10 1 2 3 2 3 8 4 3 5 2 6 6 5 1 3 2 4 7 8 8 7 7 8 8 7 6 7 7 8 13 16 13 10 10 10 8 8 12 13 14 15 16 16 17 18 19 18 19 19
2 4 4 3 1 3 4 2 4 4 5 7 6 6 5 2 3 1 4 8 5 4 4 8 11 8 8 1 1 3 3 2 5 8 9 10 12 11 9 9 6 7 6 5 5 6 9 13 12 10 10 10 13 15 16 16 17 17 18 19 19 19 19
8 4 4 0 1 4 12 15 17 10 1 4 5 7 8 4 1 1 5 6 4 5 8 5 8 4 4 2 1 3 2 7 10 8 6 5 6 9 10 10 10 5 4 6 10 11 11 12 12 12 11 12 15 16 15 14 17 19 20 19 18 16 14
6 6 3 3 2 3 13 21 17 9 2 7 5 4 2 6 5 6 7 9 7 9 10 7 7 4 3 3 3 6 9 7 5 7 9 10 8 6 5 8 9 7 7 4 3 5 6 2 4 4 5 14 17 16 15 16 18 17 16 15 13 12 13
4 6 5 1 3 5 21 26 11 7 2 3 7 8 6 5 8 9 9 8 6 7 8 7 6 5 6 8 7 6 8 9 10 9 10 10 9 10 10 10 10 6 5 6 6 4 4 2 6 5 2 5 8 10 15 19 18 18 17 14 13 13 14
1 4 3 1 4 12 16 10 3 7 2 4 8 10 10 5 7 7 9 9 7 7 9 9 10 10 10 11 11 10 10 10 9 8 8 8 9 9 8 7 8 7 3 3 3 5 5 6 1 7 10 11 9 5 10 12 12 12 13 14 14 14 14
2 3 4 6 9 10 10 8 6 11 8 7 8 11 10 9 6 4 9 8 7 8 10 11 9 10 9 7 8 9 9 9 10 10 9 10 10 10 10 11 10 7 7 6 4 3 5 3 1 2 5 11 9 12 11 6 4 7 10 13 14 14 14
3 8 10 9 7 9 13 12 12 15 13 7 9 12 12 7 7 6 10 8 8 7 6 11 9 8 4 7 8 8 8 9 9 8 7 9 9 8 8 10 10 8 7 6 8 9 10 12 12 7 3 3 11 11 9 10 10 9 7 6 10 13 13
2 3 4 6 8 9 11 12 16 17 14 8 6 11 11 10 10 11 9 10 10 9 9 11 10 7 5 6 5 4 6 8 9 10 10 9 9 9 9 7 7 7 8 9 10 9 9 10 8 8 8 6 6 8 10 10 7 8 5 2 6 9 13
2 1 9 9 8 4 8 11 14 15 13 11 7 8 8 9 9 9 8 8 10 8 11 9 11 9 7 8 7 7 8 8 7 8 9 9 9 9 7 7 5 6 8 9 10 10 10 8 8 7 6 7 6 5 7 10 10 11 12 8 6 8 10
3 6 3 4 3 9 15 17 17 14 11 9 5 7 11 11 13 12 11 10 10 11 10 8 11 13 9 8 8 10 9 10 9 9 8 8 8 7 8 8 7 7 5 7 8 8 8 6 6 7 7 7 7 4 6 8 12 12 11 13 13 8 3
1 1 2 4 2 3 9 12 13 14 15 12 11 3 9 10 10 11 13 11 10 11 9 9 11 12 9 8 8 11 10 10 10 10 10 9 8 8 7 5 3 4 6 6 6 7 6 5 6 6 4 3 3 4 2 8 12 13 13 13 11 9 11
2 1 1 2 5 5 4 8 12 12 13 12 9 7 4 7 7 8 12 13 12 11 9 7 10 9 9 7 7 10 9 9 8 9 10 11 10 9 8 7 8 6 3 3 4 3 4 6 7 7 6 3 2 3 3 5 12 16 15 13 12 10 8
2 3 2 1 1 4 4 5 8 11 12 12 10 6 5 6 6 9 11 11 12 9 8 9 7 7 8 6 8 10 8 8 9 10 10 11 11 10 10 8 7 6 5 6 4 3 2 6 7 6 6 6 3 4 4 5 7 11 13 14 13 13 12
3 1 1 2 3 3 2 9 9 9 9 11 9 8 7 6 7 8 11 10 8 9 9 9 7 6 8 7 8 8 7 8 8 9 11 11 13 13 12 14 13 9 7 6 6 5 1 4 8 8 5 3 8 5 7 9 11 10 8 11 15 15 14
Wind_Direction
231 224 188 200 159 200 215 172 209 203 120 189 223 294 266 137 157 247 202 301 306 297 333 242 201 198 203 200 199 194 196 196 188 188 192 195 192 192 191 192 193 195 196 196 195 194 191 190 188 190 190 188 188 185 186 188 188 186 187 189 189 190 190
234 224 216 214 195 148 154 204 209 162 144 134 174 210 267 229 218 259 233 229 273 207 249 271 188 194 212 209 199 192 192 190 191 194 196 198 195 193 192 192 192 194 195 195 196 194 191 189 191 192 191 189 186 184 184 184 186 187 190 188 189 190 190
233 228 219 247 236 183 190 195 184 180 202 200 242 125 219 211 228 254 271 225 225 198 237 233 213 203 209 202 194 189 188 188 194 199 204 202 196 191 192 194 195 198 196 196 194 194 194 193 192 190 188 183 184 186 186 185 186 187 186 188 190 191 190
215 212 185 220 226 242 209 136 204 182 130 200 164 207 143 143 232 198 268 209 239 207 207 199 217 217 196 199 193 194 188 190 196 201 202 199 193 190 192 194 198 197 198 197 195 194 192 191 191 190 184 184 186 186 184 188 189 187 186 187 187 191 191
197 225 187 209 198 201 210 212 195 217 213 221 173 205 182 181 178 185 180 235 258 250 204 187 223 234 201 193 194 196 196 197 198 199 199 197 194 190 191 194 196 199 199 197 196 194 192 189 186 183 183 187 188 183 186 185 185 186 188 188 188 190 188
223 238 201 193 197 198 206 200 211 196 146 154 180 249 348 154 168 209 182 249 271 262 181 190 209 235 203 205 195 197 198 197 198 200 200 196 195 195 192 193 196 199 196 195 195 193 188 180 180 185 187 186 184 186 188 186 185 188 187 188 189 187 187
238 224 239 203 197 197 202 198 210 188 161 133 150 208 273 285 246 178 160 227 255 241 201 195 214 228 218 203 205 204 197 197 200 202 198 197 194 192 195 196 200 197 192 193 190 186 183 184 185 185 182 184 188 190 186 186 187 190 188 188 186 185 186
266 248 255 288 228 198 204 210 198 185 201 187 185 169 190 177 245 208 226 233 258 270 206 248 221 205 209 211 206 208 212 206 201 195 195 196 195 196 196 198 200 199 196 190 182 182 182 182 180 181 185 189 190 189 188 187 192 188 187 186 185 185 186
240 265 270 276 264 230 213 200 199 200 197 179 177 150 124 214 213 183 160 232 259 284 216 242 267 257 206 188 208 205 198 219 202 195 195 194 194 195 198 199 201 196 179 171 181 184 184 183 182 182 185 187 187 190 190 191 194 187 187 184 185 185 186
207 212 221 215 208 212 220 205 195 199 196 187 134 209 170 213 247 157 209 255 256 274 256 213 245 258 262 253 217 190 197 194 198 201 197 191 190 197 198 199 192 182 178 181 182 184 187 185 181 183 186 188 189 189 192 191 187 186 189 187 186 184 187
210 221 214 228 148 161 215 208 195 197 200 193 193 163 168 215 168 207 223 171 270 264 233 237 233 250 257 263 231 222 197 212 226 206 190 191 195 197 195 192 189 183 179 184 184 184 185 185 185 185 187 188 189 188 188 187 186 186 188 187 186 187 188
207 198 212 212 170 191 203 203 200 198 197 194 191 186 218 130 125 238 211 203 206 253 265 249 240 234 251 255 288 223 218 198 182 192 218 216 207 200 191 186 181 181 186 186 184 186 186 187 187 188 189 188 187 186 187 187 183 183 187 188 188 189 189
211 201 210 215 200 193 197 204 195 196 199 196 199 205 181 152 186 221 180 193 199 243 239 231 219 240 240 247 244 222 209 193 179 181 192 199 201 196 189 191 186 187 188 189 190 187 187 185 185 185 185 189 187 186 186 185 184 187 185 187 190 190 191
214 209 204 217 211 197 193 205 203 195 195 204 205 203 188 178 203 190 181 198 213 208 223 229 244 237 190 226 235 144 149 195 197 192 199 196 193 189 192 193 192 193 193 191 190 184 182 181 184 184 186 187 187 187 189 187 188 188 182 189 190 191 195
219 208 209 210 219 198 206 205 210 203 198 202 204 205 203 196 212 191 196 206 232 248 224 239 246 234 212 145 162 171 176 140 171 177 183 195 198 204 206 199 196 194 191 187 184 181 183 184 185 186 187 188 188 190 189 188 190 187 185 188 192 194 199
236 211 205 210 217 214 194 210 207 208 205 200 199 209 190 165 190 200 195 217 235 264 240 231 245 222 212 207 192 184 215 186 148 183 202 193 194 196 197 200 198 194 189 184 181 184 187 187 187 186 187 186 185 191 190 193 193 187 187 190 193 196 199
278 224 205 206 207 222 239 224 214 182 192 216 225 213 191 194 190 191 199 227 208 211 207 204 233 226 217 226 199 165 220 222 164 163 181 186 185 184 203 206 197 190 187 185 186 186 186 189 190 193 188 184 190 193 192 196 189 185 190 193 194 197 195
284 261 187 183 198 216 226 228 160 174 196 187 180 212 225 237 205 197 199 221 216 215 195 189 209 217 198 197 242 277 172 188 189 185 176 176 183 184 182 187 191 196 196 194 191 189 189 193 194 194 188 189 196 195 194 189 184 190 192 195 195 197 194
271 277 135 159 205 219 237 259 180 185 179 172 182 180 4 282 204 252 326 330 299 264 222 189 183 170 133 49 24 40 48 2 291 192 182 186 178 181 185 189 194 194 195 200 202 200 200 198 198 191 193 197 198 195 190 186 190 191 193 194 196 197 195
276 262 209 191 207 231 269 331 282 171 152 164 128 38 355 341 279 198 136 156 149 135 178 143 158 130 116 77 46 24 6 50 86 307 277 208 191 196 198 194 193 197 205 203 201 202 202 196 195 194 198 199 194 194 190 192 192 193 193 194 197 195 197
256 248 229 212 213 70 97 3 357 143 162 159 150 119 287 289 321 180 147 159 142 164 200 234 250 259 89 74 35 2 354 348 357 30 141 290 269 225 203 189 224 228 211 204 204 203 199 196 195 199 202 197 194 190 189 195 196 196 194 196 197 196 197
175 214 236 176 154 180 232 233 267 314 143 132 135 109 334 327 353 0 125 119 91 117 123 87 202 87 67 32 349 348 352 2 11 8 357 353 334 289 280 281 226 199 201 217 232 230 216 209 205 201 197 192 191 190 193 194 195 199 197 199 199 197 198
295 250 209 211 176 230 211 175 235 150 123 119 89 76 93 278 312 332 104 89 85 97 103 85 97 75 86 201 270 352 360 2 11 25 18 6 351 349 318 259 249 252 227 201 200 197 194 207 215 206 196 189 188 194 195 194 196 199 202 203 199 198 200
224 233 206 222 199 140 253 198 125 174 151 113 85 99 228 262 320 321 95 90 94 91 74 87 72 108 140 202 272 348 359 40 29 30 16 6 357 3 12 359 309 255 237 253 260 219 208 215 206 184 180 186 195 198 201 196 196 201 205 206 202 201 199
315 299 260 286 347 18 4 353 337 316 129 81 144 193 205 215 205 31 86 77 66 72 59 50 94 51 101 118 15 358 347 32 23 26 34 24 360 0 11 358 350 355 290 227 216 224 230 226 209 184 181 189 196 203 201 200 203 205 205 206 204 202 194
329 301 239 213 138 143 4 342 321 298 150 186 207 225 131 128 101 58 60 76 56 69 73 75 87 99 66 78 50 30 27 35 33 23 13 13 19 23 359 8 19 6 17 13 313 278 250 286 1 321 232 198 201 203 199 201 206 210 211 208 204 196 188
327 311 311 18 97 323 355 334 328 28 69 241 164 120 85 92 85 74 55 55 39 63 73 64 73 53 42 38 30 31 26 28 24 15 13 15 13 358 0 3 1 8 21 2 8 5 337 217 154 143 151 268 264 234 212 205 207 206 201 196 195 193 190
34 303 356 348 276 300 322 339 324 316 314 135 119 117 96 63 74 81 77 48 45 58 71 55 40 32 26 19 19 22 22 18 12 16 13 15 9 5 5 359 345 349 3 7 17 358 359 351 344 149 163 183 197 228 267 257 244 215 192 188 186 185 186
134 276 279 270 304 314 316 313 339 4 31 53 93 93 99 102 73 76 82 70 53 55 73 60 50 48 33 28 17 24 16 16 14 9 11 16 11 4 357 348 346 342 351 344 342 16 349 340 325 279 181 174 183 207 216 197 219 232 213 189 179 180 180
229 252 240 273 294 330 344 350 13 20 10 25 73 94 94 70 92 84 95 95 78 69 60 83 58 52 32 34 23 27 24 23 14 14 16 18 16 11 4 1 355 356 355 9 6 358 359 359 344 340 325 241 202 211 191 179 179 196 208 210 187 176 174
30 324 315 324 325 345 2 358 12 21 6 0 44 80 86 98 95 93 93 98 97 93 89 89 94 75 52 56 42 32 29 25 19 17 11 8 7 5 11 358 358 12 24 28 25 21 15 356 355 349 339 4 44 53 47 27 46 62 44 238 206 183 169
148 240 302 298 296 3 18 23 19 16 358 345 18 70 78 86 82 84 90 96 91 92 82 84 85 77 56 58 47 45 36 31 27 19 11 7 0 359 1 0 10 35 39 42 44 44 30 17 18 7 358 346 358 37 54 73 69 65 58 19 265 211 181
259 250 241 329 307 16 359 9 14 3 356 336 344 83 94 91 90 89 79 74 83 81 86 82 82 74 56 53 56 53 40 35 26 17 15 11 4 355 354 352 9 38 38 45 48 49 43 31 35 38 18 352 341 12 82 97 103 96 82 56 20 341 249
55 295 315 297 7 15 349 357 11 360 350 349 319 340 87 91 94 92 90 76 69 74 69 72 75 78 68 54 53 56 51 43 30 24 19 13 12 5 351 341 339 58 64 61 58 58 44 30 58 61 52 26 358 1 57 116 108 99 101 94 81 44 359
198 291 354 58 130 94 38 13 12 4 2 349 323 317 51 81 91 98 96 90 73 64 56 51 70 72 69 57 56 61 49 38 37 36 32 29 20 9 5 7 359 344 0 85 90 71 64 54 39 25 11 7 56 80 76 115 123 121 117 110 103 97 71
273 265 241 200 222 144 118 60 34 21 1 353 330 333 11 55 74 83 81 83 92 84 67 54 51 68 70 56 59 65 50 39 39 39 39 41 36 26 20 21 17 13 0 350 356 8 55 79 62 27 3 352 16 60 63 88 117 119 119 115 113 109 104
245 351 101 55 84 84 91 104 78 51 15 358 337 336 360 31 52 62 81 79 72 85 83 70 50 45 68 60 60 58 57 46 35 42 46 44 40 34 27 22 19 15 4 355 350 358 33 130 132 131 122 20 344 11 76 93 83 72 77 101 106 107 114